STARLINK-34570, 64860

Orbit data source: Space-Track

STARLINK-34570, 64860 is a payload satellite owned by SpaceX/Seattle (US) in SSO that was launched on Sat, 19 Jul 2025 UTC via an FALCON 9 launch vehicle from the Air Force Western Test Range (AFWTR). Payload-class satellites include a variety of spacecraft equipped with specific instruments for various scientific and technological missions. These include communications satellites like Starlink; space stations such as the ISS; scientific satellites like the Hubble; Earth observation satellites from companies like Planet Labs, Umbra, and HawkEye 360; GPS; miniature CubeSats for education and research; and military/defense satellites.

Loading next visibility...
Identifier
64860, 2025-152U
Orbit
SSO
Country
Flag of USUS
Related business
Manufacturer
SpaceX/Seattle
Mission
Operational Commercial Communications
Bus & Motor
STARLINK V2MO, Unknown motor
Mass
575 kg wet, ~530 kg dry
Launch date (UTC)
2025-07-19 (11 months ago)
Launch vehicle
FALCON 9
Launch site
Air Force Western Test Range (AFWTR)
Object type
Payload
Rocket body
Debris
Shape & HBR
Box + 2 Pan, 17.7 m
Radar Cross Section
36.964 m², Large (>1 m²)

Expand to show TLE details & history
Last TLE update: 21 hours ago

TLE from 21 hours ago
0 STARLINK-34570
1 64860U 25152U   26171.03291253  .00002301  00000-0  16334-3 0  9997
2 64860  97.3395  25.2510 0002446  76.5091 283.6409 15.05661850 50814
Epoch: 2026-06-20T00:47Z
TLE epoch observation values (Epoch: 2026-06-20T00:47:23.642Z)
Latitude
-0.00003°
Longitude
105.14914°
Altitude
552.148 km
Speed
7.586 km/s
True Right ascension
01h 41m 00s
True Declination
0° 00' 00"
Sunlit
Object was in daylight at epoch
Visualization orbit readout
Latitude
Unknown
Longitude
Unknown
Altitude
Unknown
Speed
Unknown
Apparent Right ascension
Unknown
Apparent Declination
Unknown
Sunlit
N/A
Visualization observer readout
Local Sidereal Time
08:42:05
Azimuth
Unknown
Elevation
Unknown
Doppler factor
Unknown
Orbital elements
Apogee altitude
548.151 km
Perigee altitude
544.763 km
Semi-major axis
6,924.594 km
Eccentricity
0.00024
Inclination
97.3395°
RAAN
25.251°
Arg. of periapsis
76.5091°
True anomaly
283.61366°
Mean anomaly
283.6409°
Eccentric anomaly
283.62728°
Mean motion
3.76662 °/min
Orbital period
95.58 mins
BSTAR
0.00016334
Loading maneuver chart data...
Computing Atmospheric mass density...
Loading historical data...
Loading historical data...
Loading historical data...
Loading historical data...
Loading historical data...
Loading historical data...
Loading historical data...

Documentation

Showing up to 5 results
|